Helicity
14 40 35 4 1 -23 -11 16 21 27 51 83 87 95 79 82 107 -1 7 19 5 29 -24 -8 -20 -8 -9 14 11 6 9 16 21 25 27 82 14 35 -19 -3 -1 18 -4 63 46
12 10 39 21 35 16 -2 -1 7 35 51 86 88 90 85 84 69 10 10 14 14 14 -19 -13 0 -4 7 15 12 6 12 18 51 39 40 53 24 23 -4 -13 -5 14 33 22 24
4 11 16 33 26 25 21 -7 -1 53 58 77 92 91 93 94 64 21 56 26 13 -15 -23 -9 -1 -4 11 10 24 32 9 62 20 35 43 33 19 40 13 15 56 40 26 32 21
19 10 21 35 20 18 26 -29 24 56 70 65 89 94 109 57 111 76 48 38 10 -17 -14 -2 -2 10 25 17 28 24 28 31 46 42 38 37 44 18 22 36 44 31 29 18 22
40 29 41 28 11 11 27 24 26 48 65 72 82 97 95 74 75 28 49 52 19 -2 -16 -1 8 21 24 27 17 16 34 44 30 19 15 32 15 29 50 49 55 40 22 33 41
55 52 24 20 19 18 26 30 30 32 63 81 82 122 84 97 61 19 31 48 28 12 11 4 28 31 25 26 23 56 32 23 28 18 37 52 49 61 81 42 28 21 41 52 57
60 44 -6 19 19 19 44 31 36 37 62 89 81 80 75 95 60 48 22 40 61 44 30 38 27 10 36 25 32 17 14 18 39 55 64 55 47 51 113 57 43 37 53 66 73
59 38 11 24 27 39 39 22 23 43 62 76 76 68 65 68 64 45 52 60 58 67 74 54 33 29 20 49 15 16 26 25 103 53 69 43 104 117 95 71 62 70 78 83 96
88 88 68 46 27 31 21 26 22 55 53 58 63 73 64 41 65 43 44 65 84 82 86 61 30 30 19 16 21 36 35 48 75 69 76 40 100 109 75 94 61 83 105 113 113
86 98 97 91 79 92 24 2 8 21 55 59 59 71 20 41 60 76 62 78 83 68 55 33 24 19 18 26 43 95 42 52 45 84 54 23 17 73 57 39 53 108 128 131 139
82 89 72 80 106 109 69 31 15 34 52 78 68 61 93 73 50 78 73 78 69 46 27 8 34 41 31 35 33 48 39 35 52 105 39 26 52 42 45 39 127 156 157 159 140
82 96 89 97 132 99 122 89 14 106 75 8 12 61 66 39 64 64 92 79 75 28 16 64 32 23 85 60 37 29 33 34 55 74 39 23 31 57 18 66 146 188 192 159 119
81 93 104 105 142 149 95 73 123 99 36 23 5 17 24 52 26 41 49 47 43 21 37 29 78 93 69 42 23 19 22 45 55 37 15 17 27 85 104 165 191 175 167 129 107
89 101 116 118 141 121 61 44 74 91 39 6 61 37 44 45 62 93 52 63 61 38 29 49 88 48 31 30 35 36 63 26 21 46 82 34 90 57 116 122 126 152 131 138 123
95 106 91 41 136 95 55 38 1 74 55 42 95 175 118 85 86 111 107 88 36 58 83 81 43 47 28 31 46 63 65 40 30 29 34 32 59 48 178 144 148 153 162 150 126
108 110 90 121 129 90 79 51 52 77 40 19 36 72 90 78 118 110 120 145 135 59 45 81 92 60 79 75 64 61 35 24 29 32 43 48 70 115 142 105 126 167 195 186 163
96 133 119 108 125 65 74 79 124 103 51 32 23 42 28 108 104 96 63 77 93 73 28 31 34 77 79 68 59 33 32 56 25 44 93 74 63 77 76 37 101 176 231 222 190
138 130 128 163 138 87 98 73 97 64 58 55 57 38 13 59 54 73 52 31 20 33 95 48 34 45 46 47 35 32 14 54 82 81 111 54 50 100 87 98 89 195 196 213 216
146 150 175 122 145 132 116 62 80 71 73 53 38 49 37 45 70 51 29 26 32 32 57 41 76 106 83 101 99 68 60 90 78 63 62 55 60 78 93 56 71 150 207 258 231
255 216 164 144 160 168 108 -6 55 116 94 56 58 11 46 24 58 40 46 39 50 25 9 76 97 64 71 69 72 96 106 85 67 77 48 47 52 57 56 57 70 114 202 233 222
229 311 164 141 226 166 136 40 105 95 97 64 68 51 45 56 16 58 68 51 11 50 19 82 86 75 79 52 65 86 78 77 102 109 92 70 64 130 66 65 45 93 137 183 258
272 250 208 185 263 123 95 74 140 78 93 83 105 67 49 38 32 32 46 70 52 41 85 42 93 62 77 92 103 93 43 49 68 76 71 112 67 93 67 85 77 103 123 211 239
266 304 328 300 240 151 126 107 136 93 106 77 83 89 83 47 70 50 60 74 48 46 54 63 59 77 53 65 75 89 60 61 59 94 71 81 62 96 60 51 96 138 233 246 287
333 329 319 304 147 115 157 118 135 132 130 114 117 95 82 81 88 61 67 87 76 76 105 88 111 57 58 153 136 68 48 49 64 73 52 73 25 38 74 67 129 132 250 263 302
303 201 295 259 190 287 145 139 128 105 133 90 97 79 77 83 72 84 84 95 98 91 96 110 83 52 42 83 81 74 74 68 88 74 80 32 35 13 42 112 156 163 256 328 359
248 306 284 202 197 306 195 138 127 74 80 109 102 58 63 61 66 60 64 83 90 80 87 115 110 114 53 67 60 71 80 57 63 64 56 42 34 8 41 76 144 129 305 329 362
319 315 187 234 156 243 222 108 90 59 90 88 62 80 78 57 90 136 140 133 146 95 82 120 124 100 66 130 71 71 48 59 58 55 69 62 18 93 92 107 130 104 306 311 244
Wind_Speed
47 50 47 45 44 45 46 47 48 47 44 45 44 44 44 46 49 30 27 26 20 16 20 20 21 24 23 23 24 24 15 14 16 18 19 29 23 23 17 27 27 13 10 32 32
45 47 52 48 48 43 44 47 50 47 45 45 45 44 45 46 44 38 25 20 16 14 18 19 23 23 21 21 21 16 13 18 30 29 26 30 34 43 32 28 12 13 23 27 29
48 46 49 51 53 52 45 48 48 47 46 45 45 44 44 44 38 31 14 13 14 13 27 26 26 28 24 24 19 21 11 31 26 31 36 38 39 38 36 34 36 38 47 43 36
51 49 47 48 46 46 48 50 48 47 47 45 44 44 46 34 34 27 16 12 16 19 20 24 27 29 31 25 25 24 21 27 32 34 32 33 39 40 40 37 41 39 45 44 42
55 50 46 50 45 47 49 47 46 47 46 45 43 43 40 38 43 28 16 16 18 21 24 28 33 34 33 31 31 25 33 32 31 33 31 36 31 37 37 36 39 39 40 43 42
55 52 43 46 45 46 48 48 45 46 44 44 42 45 42 48 32 26 19 20 23 25 26 32 36 37 40 36 30 36 33 32 33 33 31 30 31 32 27 37 37 38 42 42 41
54 50 45 40 44 45 48 48 47 43 42 43 41 42 46 42 35 29 23 24 28 30 29 33 35 37 38 37 35 36 37 35 29 31 29 27 25 28 28 31 34 36 38 39 40
52 49 45 43 38 39 44 44 44 40 38 39 41 41 49 35 40 34 29 26 25 27 29 31 35 38 38 37 36 35 32 33 21 27 29 29 36 21 26 29 31 32 34 36 38
55 44 44 38 35 39 43 42 41 34 36 38 40 42 55 36 43 38 33 31 25 25 29 30 35 40 37 35 38 27 34 30 30 28 31 27 39 21 20 33 25 25 27 30 34
53 42 44 38 32 26 32 34 35 28 30 33 40 45 51 49 41 38 33 30 30 28 31 35 39 43 35 32 33 37 33 33 34 31 33 34 38 27 22 27 17 17 20 25 29
53 45 46 41 33 26 33 29 40 48 45 49 42 49 41 38 37 42 36 32 34 36 46 35 44 44 39 33 45 43 41 36 38 35 44 37 34 37 36 19 3 9 14 20 25
49 44 44 35 30 26 35 43 34 35 57 55 67 52 59 43 46 39 35 37 41 48 43 42 53 49 39 42 41 39 37 38 39 35 37 41 40 38 32 10 6 6 9 14 19
47 40 38 35 24 23 30 32 30 38 42 55 72 76 56 50 50 40 30 45 46 51 44 51 42 33 36 38 34 34 35 37 40 42 37 45 42 26 17 13 9 5 8 11 15
44 35 26 27 33 25 33 23 21 30 49 53 50 60 64 46 58 38 26 31 40 43 40 47 38 39 42 42 36 40 40 40 40 38 39 30 38 21 10 5 0 1 3 8 12
45 36 23 21 30 26 24 14 17 30 52 30 36 38 44 50 32 42 28 38 43 38 34 37 34 34 37 39 32 36 34 34 37 40 46 30 36 39 6 7 7 5 3 3 7
43 40 33 40 40 31 23 7 11 43 61 39 33 41 38 47 45 33 39 40 41 45 41 45 33 33 37 31 27 28 33 36 40 37 40 33 29 25 16 10 8 7 5 2 2
46 39 36 34 36 25 13 12 31 64 34 41 40 37 40 41 41 42 38 42 43 44 49 47 45 39 32 31 30 28 37 41 37 34 41 33 33 39 22 15 9 10 8 6 2
48 34 39 37 36 27 26 27 56 41 40 28 31 30 41 32 41 40 43 45 43 45 44 39 42 28 30 32 37 26 25 37 48 44 39 34 38 36 30 27 25 8 8 8 7
40 38 52 46 40 32 34 45 49 40 32 28 25 32 39 40 38 34 39 43 37 37 41 39 38 30 31 28 25 26 29 34 42 42 46 39 39 33 27 24 23 17 10 11 11
49 41 52 40 40 36 59 46 44 34 30 31 38 35 41 35 37 37 38 45 44 44 51 41 38 30 28 25 28 31 29 31 31 46 48 40 45 41 28 26 21 16 13 13 13
46 52 44 36 41 53 62 52 43 39 38 38 43 40 38 35 37 36 37 37 38 35 38 39 39 29 26 27 25 27 33 33 40 41 49 54 47 34 38 29 24 16 12 13 16
55 63 44 40 52 64 65 53 49 45 41 46 40 39 35 36 38 43 43 36 29 23 34 34 41 34 33 32 34 36 33 28 40 42 42 50 57 40 41 33 28 21 16 17 18
60 49 49 58 68 59 57 56 53 50 46 44 43 41 38 34 39 38 35 32 26 25 25 23 37 33 37 38 34 36 33 37 42 47 49 58 51 41 41 34 28 22 20 22 20
55 58 52 70 70 66 56 55 57 53 52 48 42 34 35 38 38 37 37 35 31 31 33 28 39 41 45 40 31 35 35 33 34 47 51 45 58 53 49 42 32 28 25 24 24
62 61 61 73 79 67 55 57 57 55 61 50 51 52 40 41 40 39 34 33 32 32 32 35 47 47 55 51 49 52 46 38 38 43 53 56 59 59 62 57 36 31 29 28 27
63 56 56 54 63 65 59 66 51 57 45 58 61 53 53 57 46 42 36 34 36 29 32 37 49 49 59 55 57 62 54 55 54 49 52 55 59 64 63 53 41 38 29 28 27
55 49 51 58 59 66 69 67 66 61 64 59 55 50 55 57 49 41 36 39 42 40 38 43 47 53 67 54 60 68 55 51 53 46 51 55 55 58 56 53 47 43 27 26 25
Wind_Direction
287 284 287 290 291 292 289 288 287 288 289 283 286 288 292 290 281 303 308 325 343 35 348 10 1 350 353 0 352 354 69 68 44 39 29 357 18 20 238 215 208 74 84 356 356
288 287 282 286 285 294 294 288 284 290 285 282 283 286 290 292 287 286 308 322 350 32 8 6 354 358 5 7 10 33 45 23 348 350 358 349 343 328 348 354 32 35 18 10 4
284 288 287 281 278 279 292 288 287 288 281 279 282 285 288 293 290 293 307 325 338 355 316 328 341 339 348 349 6 5 33 347 355 341 332 331 331 331 336 342 345 335 320 329 345
280 284 286 285 287 285 282 282 286 284 276 276 280 284 284 289 278 305 299 311 315 318 331 331 334 332 330 341 345 348 354 345 341 341 340 340 330 328 325 327 330 336 328 330 335
275 280 286 283 288 282 279 284 285 283 279 277 281 283 281 274 275 308 295 294 301 306 309 315 317 323 325 332 334 335 334 340 340 336 337 331 335 328 327 332 333 338 340 337 337
272 276 285 284 285 282 277 277 287 280 279 278 279 277 273 266 290 300 293 283 290 295 304 306 312 318 317 325 331 335 334 335 337 337 337 339 337 336 341 331 336 342 341 345 346
268 272 277 287 283 280 275 274 279 282 280 278 281 278 271 265 289 282 289 283 285 290 298 306 312 317 322 324 326 328 332 334 338 345 348 350 335 330 339 340 340 346 351 355 356
266 268 272 278 286 284 278 276 278 283 285 282 279 277 268 279 275 275 274 285 290 296 300 307 311 313 318 323 325 328 333 337 359 353 350 350 338 350 347 342 341 348 354 359 4
262 269 270 277 285 282 277 276 279 287 283 283 278 272 266 277 267 267 266 274 285 297 303 309 309 309 317 318 320 327 331 337 342 348 344 338 328 349 348 337 348 355 3 6 10
260 267 266 268 279 291 290 279 278 285 285 285 278 271 270 267 265 262 265 271 279 286 296 298 301 302 311 310 314 324 329 332 332 343 336 325 319 326 342 329 344 7 12 10 9
256 259 258 262 270 283 275 285 272 270 272 259 272 258 290 274 268 258 261 263 276 277 279 292 292 293 304 307 306 314 317 324 326 333 328 323 322 322 321 330 6 17 19 15 14
253 255 255 263 266 275 274 266 276 286 265 262 259 268 262 270 260 261 257 258 265 269 278 286 285 291 303 305 306 310 315 320 324 333 332 320 318 324 327 358 92 75 43 32 36
249 251 252 255 266 272 271 273 291 275 277 265 245 245 255 257 260 257 253 256 267 269 272 277 295 306 302 307 309 311 312 318 322 326 322 316 316 326 344 353 356 40 38 46 41
244 245 244 244 263 268 269 272 309 297 271 263 256 252 247 258 258 268 257 267 269 271 274 281 288 293 297 299 306 307 315 315 318 324 325 329 328 324 329 333 195 309 47 41 42
237 236 221 210 268 259 280 262 279 291 259 270 257 267 254 244 272 257 267 265 266 271 275 287 289 293 297 301 306 311 323 323 321 317 316 317 322 316 316 285 244 199 174 49 48
231 229 226 245 257 261 261 211 265 265 257 269 272 257 251 247 257 270 258 268 276 273 275 280 296 295 301 312 315 325 322 321 318 319 316 320 318 319 305 272 236 221 228 224 65
225 221 223 239 249 259 236 197 261 251 283 272 270 262 250 250 254 256 255 254 258 266 270 275 278 289 294 300 309 312 313 312 314 318 315 329 322 316 326 317 246 225 230 235 274
221 210 232 240 247 247 227 227 255 275 269 294 277 267 252 257 257 256 257 256 255 263 278 274 282 269 283 282 295 304 304 307 304 309 322 329 321 325 333 328 318 246 254 257 271
210 222 235 236 240 238 231 234 252 276 274 272 277 261 260 256 262 256 256 256 257 254 266 278 279 292 293 297 297 306 301 310 309 313 313 315 320 327 329 327 322 307 266 270 280
219 222 234 231 233 233 234 238 253 274 278 263 263 264 256 257 257 257 256 265 260 259 256 279 283 292 297 306 298 301 314 312 310 310 311 318 316 317 328 318 317 303 284 285 289
221 228 233 224 229 235 236 242 263 269 267 263 261 261 265 260 257 259 268 274 256 259 256 274 282 296 300 294 300 299 302 306 310 312 311 311 318 337 328 324 320 307 290 292 301
223 230 227 214 226 237 239 242 255 259 263 262 271 270 269 265 259 259 262 273 273 270 262 266 284 292 294 303 299 298 300 301 304 310 312 311 309 330 328 329 325 316 310 313 311
220 234 230 226 233 235 242 242 252 253 257 260 263 266 269 266 264 263 268 279 278 275 273 272 281 285 299 301 301 298 299 300 302 307 304 305 314 336 336 332 327 316 312 313 312
220 228 231 229 235 235 232 239 248 251 254 256 260 270 267 265 268 268 270 277 279 277 283 282 284 282 287 305 315 306 302 301 297 302 305 302 306 316 323 324 317 309 303 305 305
225 234 228 225 228 240 230 244 242 248 248 253 256 255 261 263 264 271 276 280 284 283 284 286 283 287 288 297 300 298 300 300 294 297 298 306 307 313 316 321 317 306 304 303 301
227 235 232 238 224 233 233 241 236 241 246 248 252 253 257 258 265 272 274 279 282 284 286 289 288 292 290 296 298 294 297 296 295 297 298 301 304 310 315 321 319 311 298 301 301
234 240 232 233 226 231 234 239 243 244 248 254 254 259 257 261 273 280 285 289 287 286 282 287 288 292 289 298 300 296 297 296 295 295 301 302 308 316 316 321 322 317 303 302 303